Weather History for Klawock, AK

Change the Weather History Date:

Sunday, October 28, 2012

  Actual Average Record
Temperature  
Mean Temperature 32 °F -  
Max Temperature 39 °F 46 °F 55 °F (2008)
Min Temperature 27 °F 36 °F 27 °F (2012)
Degree Days  
Heating Degree Days 32    
Moisture  
Dew Point 18 °F    
Average Humidity 58    
Maximum Humidity 66    
Minimum Humidity 45    
Precipitation  
Precipitation 0.00 in - - ()
Sea Level Pressure  
Sea Level Pressure 29.80 in    
Wind  
Wind Speed 9 mph (NNE)    
Max Wind Speed 13 mph    
Max Gust Speed 20 mph    
Visibility 10 miles    
Events      
Averages and records for this station are not official NWS values.
T = Trace of Precipitation, MM = Missing Value Source: NWS Daily Summary

Daily Weather History Graph

Daily Weather History Graph

Search for Another Location

Airport:

Trip Planner

Search our weather history database for the weather conditions in past years. The results will help you decide how hot, cold, wet, or windy it might be!

Date:

Astronomy

Oct. 28, 2012 Rise Set
Actual Time 7:50 AM AKDT 5:20 PM AKDT
Civil Twilight 7:12 AM AKDT 5:58 PM AKDT
Nautical Twilight 6:28 AM AKDT 6:42 PM AKDT
Astronomical Twilight 5:46 AM AKDT 7:24 PM AKDT
Moon 4:41 PM AKDT (10/28) 6:47 AM AKDT (10/28)
Length of Visible Light 10h 46m
Length of Day
9h 29m
Waxing Gibbous, 99% of the Moon is Illuminated
Oct 28
Waxing Gibbous
Oct 29
Full
Nov 6
Last Quarter
Nov 13
New
Nov 20
First Quarter

Hourly Weather History & Observations

Time (AKDT) Temp. Windchill Dew Point Humidity Pressure Visibility Wind Dir Wind Speed Gust Speed Precip Events Conditions
12:53 AM 30.9 °F 22.8 °F 19.0 °F 61% 29.78 in 10.0 mi NNE 9.2 mph - N/A   Clear
1:53 AM 30.9 °F 23.5 °F 19.0 °F 61% 29.79 in 10.0 mi NE 8.1 mph - N/A   Clear
2:53 AM 30.0 °F 21.1 °F 19.0 °F 64% 29.79 in 10.0 mi NE 10.4 mph - N/A   Clear
3:53 AM 28.9 °F 23.9 °F 18.0 °F 64% 29.79 in 10.0 mi Variable 4.6 mph - N/A   Clear
4:53 AM 28.9 °F 20.4 °F 18.0 °F 64% 29.79 in 10.0 mi NNE 9.2 mph - N/A   Clear
5:53 AM 28.9 °F 20.4 °F 18.0 °F 64% 29.80 in 10.0 mi NNE 9.2 mph - N/A   Clear
6:53 AM 28.9 °F 21.9 °F 18.0 °F 64% 29.81 in 10.0 mi NNE 6.9 mph - N/A   Clear
7:53 AM 28.0 °F 19.3 °F 18.0 °F 66% 29.81 in 10.0 mi NE 9.2 mph - N/A   Clear
8:53 AM 28.9 °F 19.8 °F 18.0 °F 64% 29.81 in 10.0 mi NNE 10.4 mph - N/A   Clear
9:53 AM 32.0 °F 26.4 °F 19.0 °F 59% 29.83 in 10.0 mi NE 5.8 mph - N/A   Clear
10:53 AM 35.1 °F 29.3 °F 19.0 °F 52% 29.83 in 10.0 mi Variable 6.9 mph - N/A   Scattered Clouds
11:53 AM 36.0 °F 29.0 °F 17.1 °F 46% 29.82 in 10.0 mi NE 9.2 mph 18.4 mph N/A   Clear
12:53 PM 36.0 °F 27.5 °F 17.1 °F 46% 29.81 in 10.0 mi NNE 12.7 mph 19.6 mph N/A   Mostly Cloudy
1:53 PM 37.9 °F 30.0 °F 18.0 °F 45% 29.81 in 10.0 mi NNE 12.7 mph 18.4 mph N/A   Mostly Cloudy
2:53 PM 37.9 °F 30.9 °F 19.0 °F 47% 29.79 in 10.0 mi NNE 10.4 mph - N/A   Partly Cloudy
3:53 PM 37.0 °F 30.4 °F 18.0 °F 46% 29.80 in 10.0 mi NNE 9.2 mph - N/A   Clear
4:53 PM 35.1 °F 29.3 °F 18.0 °F 50% 29.80 in 10.0 mi NNE 6.9 mph - N/A   Clear
5:53 PM 33.1 °F 24.9 °F 18.0 °F 54% 29.79 in 10.0 mi NNE 10.4 mph - N/A   Clear
6:53 PM 32.0 °F 24.8 °F 17.1 °F 54% 29.79 in 10.0 mi NE 8.1 mph - N/A   Clear
7:53 PM 30.9 °F 21.7 °F 17.1 °F 57% 29.79 in 10.0 mi NNE 11.5 mph - N/A   Clear
8:53 PM 30.0 °F 20.5 °F 18.0 °F 61% 29.78 in 10.0 mi NNE 11.5 mph - N/A   Clear
9:53 PM 28.9 °F 20.4 °F 18.0 °F 64% 29.78 in 10.0 mi NNE 9.2 mph - N/A   Clear
10:53 PM 28.0 °F 18.6 °F 17.1 °F 63% 29.78 in 10.0 mi NNE 10.4 mph - N/A   Clear
11:53 PM 27.0 °F 18.0 °F 17.1 °F 66% 29.77 in 10.0 mi NNE 9.2 mph - N/A   Clear